TimeCEST,TemperatureF,Dew PointF,Humidity,Sea Level PressureIn,VisibilityMPH,Wind Direction,Wind SpeedMPH,Gust SpeedMPH,PrecipitationIn,Events,Conditions,WindDirDegrees,DateUTC
12:55 AM,71.6,59.0,64,30.09,-9999.0,NW,13.8,-,N/A,,Clear,310,2012-10-02 22:55:00
1:55 AM,68.0,59.0,73,30.09,-9999.0,WNW,15.0,-,N/A,,Clear,300,2012-10-02 23:55:00
2:00 AM,68,58,63,30.11,12,WNW,15.0,,,,,300,2012-10-03 00:00:00
2:55 AM,68.0,59.0,73,30.09,-9999.0,NW,13.8,-,N/A,,Clear,320,2012-10-03 00:55:00
3:55 AM,68.0,57.2,68,30.09,-9999.0,NW,15.0,-,N/A,,Clear,310,2012-10-03 01:55:00
4:55 AM,68.0,55.4,64,30.09,-9999.0,WNW,11.5,-,N/A,,Clear,290,2012-10-03 02:55:00
6:55 AM,68.0,57.2,68,30.09,-9999.0,WNW,12.7,-,N/A,,Clear,300,2012-10-03 04:55:00
7:55 AM,68.0,57.2,68,30.09,-9999.0,WNW,10.4,-,N/A,,Clear,290,2012-10-03 05:55:00
8:00 AM,67,56,60,30.10,12,WNW,10.4,,,,Scattered Clouds,290,2012-10-03 06:00:00
8:55 AM,68.0,57.2,68,30.09,-9999.0,WNW,10.4,-,N/A,,Clear,290,2012-10-03 06:55:00
9:55 AM,69.8,59.0,68,30.09,-9999.0,West,4.6,-,N/A,,Clear,280,2012-10-03 07:55:00
10:55 AM,73.4,64.4,73,30.12,6.2,South,5.8,-,N/A,,Partly Cloudy,190,2012-10-03 08:55:00
11:55 AM,80.6,68.0,65,30.12,6.2,SE,3.5,-,N/A,,Partly Cloudy,130,2012-10-03 09:55:00
12:55 PM,80.6,66.2,61,30.12,6.2,SSE,2.3,-,N/A,,Partly Cloudy,160,2012-10-03 10:55:00
1:55 PM,77.0,66.2,69,30.12,6.2,SSE,4.6,-,N/A,,Partly Cloudy,160,2012-10-03 11:55:00
2:00 PM,78,66,58,30.13,12,SSE,4.6,,,,Scattered Clouds,160,2012-10-03 12:00:00
2:55 PM,77.0,66.2,69,30.12,6.2,SSE,4.6,-,N/A,,Partly Cloudy,160,2012-10-03 12:55:00
3:55 PM,75.2,66.2,73,30.12,6.2,East,3.5,-,N/A,,Partly Cloudy,90,2012-10-03 13:55:00
4:55 PM,77.0,66.2,69,30.12,6.2,South,3.5,-,N/A,,Partly Cloudy,180,2012-10-03 14:55:00
5:55 PM,77.0,66.2,69,30.09,6.2,South,4.6,-,N/A,,Partly Cloudy,180,2012-10-03 15:55:00
6:55 PM,73.4,64.4,73,30.09,6.2,South,6.9,-,N/A,,Partly Cloudy,190,2012-10-03 16:55:00
7:55 PM,69.8,64.4,83,30.09,6.2,SSW,5.8,-,N/A,,Partly Cloudy,200,2012-10-03 17:55:00
8:00 PM,71,64,73,30.11,12,SSW,5.8,,,,Scattered Clouds,200,2012-10-03 18:00:00
8:55 PM,69.8,62.6,78,30.09,-9999.0,West,4.6,-,N/A,,Clear,260,2012-10-03 18:55:00
9:55 PM,68.0,64.4,88,30.09,-9999.0,West,4.6,-,N/A,,Clear,270,2012-10-03 19:55:00
10:55 PM,68.0,64.4,88,30.09,-9999.0,NW,5.8,-,N/A,,Clear,310,2012-10-03 20:55:00
11:55 PM,66.2,62.6,88,30.09,-9999.0,NW,10.4,-,N/A,,Clear,310,2012-10-03 21:55:00